Probability
0 0 0 0 0 0 0 0 0 0 0 0 0 0 0 0 0 0 0 0 0 0 0 0 0 0 0 0 0 0 0 0 0 0 0 0 0 0 0 0 0 0 0 0
0 0 0 0 0 0 0 0 0 0 0 0 0 0 0 0 0 0 0 0 0 0 0 0 0 0 0 0 0 0 0 0 0 0 0 0 0 0 0 0 0 0 0 0
0 0 0 0 0 0 0 0 0 0 0 0 0 0 0 0 0 0 0 0 0 0 0 0 0 0 0 0 0 0 0 0 0 0 0 0 0 0 0 0 0 0 0 0
0 0 0 0 0 0 0 0 0 0 0 0 0 0 0 0 0 0 0 0 0 0 0 0 0 0 0 0 0 0 0 0 0 0 0 0 0 0 0 0 0 0 0 0
0 0 0 0 0 0 0 0 0 0 0 0 0 0 0 0 0 0 0 0 0 0 0 0 0 0 0 0 0 0 0 0 0 0 0 0 0 0 0 0 0 0 0 0
0 0 0 0 0 0 0 0 0 0 0 0 0 0 0 0 0 0 0 0 0 0 0 0 0 0 0 0 0 0 0 0 0 0 0 0 0 0 0 0 0 0 0 0
0 0 0 0 0 0 0 0 0 0 0 0 0 0 0 0 0 0 0 0 0 0 0 0 0 0 0 0 0 0 0 0 0 0 0 0 0 0 0 0 0 0 0 0
0 0 0 0 0 0 0 0 0 0 0 0 0 0 0 0 0 0 0 0 0 0 0 0 0 0 0 0 0 0 0 0 0 0 0 0 0 0 0 0 0 0 0 0
0 0 0 0 0 0 0 0 0 0 0 0 0 0 0 0 0 0 0 0 0 0 0 0 0 0 0 0 0 0 0 0 0 0 0 0 0 0 0 0 0 0 0 0
0 0 0 0 0 0 0 0 0 0 0 0 0 0 0 0 0 0 0 0 0 0 0 0 0 0 0 0 0 0 0 0 0 0 0 0 0 0 0 0 0 0 0 0
0 0 0 0 0 0 0 0 0 0 0 0 0 0 0 0 0 0 0 0 0 0 0 0 0 0 0 0 0 0 0 0 0 0 0 0 0 0 0 0 0 0 0 0
0 0 0 0 0 0 0 0 0 0 0 0 0 0 0 0 0 0 0 0 0 0 0 0 0 0 0 0 0 0 0 0 0 0 0 0 0 0 0 0 0 0 0 0
0 0 0 0 0 0 0 0 0 0 0 0 0 0 0 0 0 0 0 0 0 0 0 0 0 0 0 0 0 0 0 0 0 0 0 0 0 0 0 0 0 0 0 0
0 0 0 0 0 0 0 0 0 0 0 0 0 0 0 0 0 0 0 0 0 0 0 0 0 0 0 0 0 0 0 0 0 0 0 0 0 0 0 0 0 0 0 0
0 0 0 0 0 0 0 0 0 0 0 0 0 0 0 0 0 0 0 0 0 0 0 0 0 0 0 0 0 0 0 0 0 0 0 0 0 0 0 0 0 0 0 0
0 0 0 0 0 0 0 0 0 0 0 0 0 0 0 0 0 0 0 0 0 0 0 0 0 0 0 0 0 0 0 0 0 0 0 0 0 0 0 0 0 0 0 0
0 0 0 0 0 0 0 0 0 0 0 0 0 0 0 0 0 0 0 0 0 0 0 0 0 0 0 0 0 0 0 0 0 0 0 0 0 0 0 0 0 0 0 0
0 0 0 0 0 0 0 0 0 0 0 0 0 0 0 0 0 0 0 0 0 0 0 0 0 0 0 0 0 0 0 0 0 0 0 0 0 0 0 0 0 0 0 0
0 0 0 0 0 0 0 0 0 0 0 0 0 0 0 0 0 0 0 0 0 0 0 0 0 0 0 0 0 0 0 0 0 0 0 0 0 0 0 0 0 0 0 0
0 0 0 0 0 0 0 0 0 0 0 0 0 0 0 0 0 0 0 0 0 0 0 0 0 0 0 0 0 0 0 0 0 0 0 0 0 0 0 0 0 0 0 0
0 0 0 0 0 0 0 0 0 0 0 0 0 0 0 0 0 0 0 0 0 0 0 0 0 0 0 0 0 0 0 0 0 0 0 0 0 0 0 0 0 0 0 0
0 0 0 0 0 0 0 0 0 0 0 0 0 0 0 0 0 0 0 0 0 0 0 0 0 0 0 0 0 0 0 0 0 0 0 0 0 0 0 0 0 0 0 0
0 0 0 0 0 0 0 0 0 0 0 0 0 0 0 0 0 0 0 0 0 0 0 0 0 0 0 0 0 0 0 0 0 0 0 0 0 0 0 0 0 0 0 0
0 0 0 0 0 0 0 0 0 0 0 0 0 0 0 0 0 0 0 0 0 0 0 0 0 0 0 0 0 0 0 0 0 0 0 0 0 0 0 0 0 0 0 0
0 0 0 0 0 0 0 0 0 0 0 0 0 0 0 0 0 0 0 0 0 0 0 0 0 0 0 0 0 0 0 0 0 0 0 0 0 0 0 0 0 0 0 0
0 0 0 0 0 0 0 0 0 0 0 0 0 0 0 0 0 0 0 0 0 0 0 0 0 0 0 0 0 0 0 0 0 0 0 0 0 0 0 0 0 0 0 0
Wind_Speed
3 6 9 8 8 6 4 7 9 7 3 5 7 8 4 0 4 6 7 8 10 11 11 11 11 10 9 8 6 6 6 6 6 5 5 5 6 6 6 7 10 11 11 12
5 10 9 3 4 5 7 9 9 5 1 5 6 7 2 4 5 5 6 8 9 10 11 11 11 11 11 9 7 6 5 5 5 4 4 3 4 4 6 6 8 11 11 12
12 2 4 6 6 7 8 10 8 5 2 4 5 4 6 6 6 6 6 7 8 8 10 11 11 11 11 10 8 5 5 4 4 4 3 3 3 3 4 6 6 8 10 11
9 4 5 7 8 8 8 6 7 5 6 3 3 4 9 10 9 8 8 7 8 8 9 9 10 11 10 9 7 7 6 5 4 4 4 5 4 4 4 4 5 6 8 10
7 6 7 8 7 9 3 3 3 3 5 6 5 7 7 11 13 12 10 8 8 8 8 9 9 9 9 8 7 7 7 6 4 3 3 4 4 5 4 5 6 6 6 7
5 3 5 4 2 4 6 5 3 2 4 7 4 7 5 10 16 15 12 10 9 8 8 9 8 8 8 7 7 6 7 6 4 2 1 2 4 5 6 6 6 5 5 5
8 7 5 5 5 5 6 5 4 5 6 3 3 6 5 5 7 12 14 12 10 9 9 9 8 8 7 7 7 6 7 6 5 3 2 2 3 5 6 6 6 6 5 5
8 7 9 8 8 8 8 7 6 4 3 1 4 7 1 4 3 5 9 11 10 9 8 8 7 7 7 6 6 6 6 5 5 4 3 3 3 3 3 5 6 6 6 7
8 4 4 3 1 5 7 6 2 3 1 5 5 4 3 4 5 7 10 11 10 9 8 8 7 6 6 5 5 5 4 4 4 4 4 3 4 4 5 6 7 6 7 7
6 4 4 4 4 2 2 5 5 5 5 6 5 5 4 8 8 10 12 12 11 9 8 8 7 6 5 4 4 4 4 4 4 4 4 3 5 5 6 7 8 9 9 9
7 6 5 5 8 8 7 6 5 3 4 5 5 2 1 5 7 10 11 11 10 9 9 7 6 5 4 4 3 3 3 3 3 4 5 5 6 6 7 7 9 9 10 11
7 5 5 4 2 2 6 7 8 6 6 5 5 3 4 4 5 7 9 9 8 8 7 7 6 5 3 3 3 3 3 3 3 4 5 6 7 7 8 9 10 10 11 11
9 7 6 5 5 5 5 5 7 4 3 6 7 5 5 4 5 7 8 8 8 8 8 6 5 3 2 2 2 2 3 3 4 5 6 7 8 9 10 11 11 12 12 13
6 7 8 7 2 8 7 8 10 10 8 9 12 12 6 7 8 8 8 8 9 8 7 5 4 2 1 1 2 3 4 4 5 6 7 9 9 10 11 12 12 13 13 14
6 7 7 4 1 4 7 9 13 15 15 13 13 15 13 9 10 9 8 9 9 8 6 4 2 1 1 2 3 4 4 5 6 8 9 9 10 11 11 12 13 14 14 14
5 5 4 4 3 5 7 11 14 17 17 19 19 18 9 3 6 8 9 10 9 7 5 3 1 0 2 3 4 5 6 6 7 9 10 10 11 11 12 13 14 15 15 15
7 7 6 6 3 3 11 14 17 13 13 13 17 13 5 7 8 9 9 9 8 6 4 3 1 1 2 4 5 6 7 8 8 9 10 11 11 12 13 14 15 15 16 16
8 7 4 3 4 11 6 2 6 12 13 13 11 5 7 7 6 5 7 8 7 5 4 2 1 2 3 4 5 7 8 8 9 10 11 11 11 13 14 15 16 16 15 15
4 7 5 5 8 11 7 5 7 9 9 10 11 9 8 8 7 6 5 5 5 4 2 1 2 3 4 5 6 7 8 9 9 10 11 12 12 14 15 16 16 16 15 16
2 4 6 6 7 10 4 4 4 3 8 7 10 11 12 11 8 7 8 6 5 3 2 2 2 4 5 6 7 8 10 10 11 11 12 13 13 14 15 16 17 15 15 15
7 6 10 11 11 11 1 7 8 7 4 7 10 12 13 10 3 6 8 5 4 3 2 2 4 5 6 7 7 9 11 11 12 12 13 13 14 14 15 15 15 15 15 15
11 10 10 8 10 11 7 10 9 3 4 8 9 10 10 6 6 6 6 4 3 3 3 3 5 6 7 7 8 10 12 12 12 13 14 14 15 13 12 15 15 15 15 15
10 8 7 10 7 1 7 6 1 3 6 7 8 8 8 7 6 6 5 4 3 3 4 4 6 8 9 9 9 12 12 12 13 14 14 15 15 14 13 14 15 14 13 12
7 3 5 7 7 4 5 4 4 5 5 6 7 8 8 7 6 5 4 4 4 4 5 5 7 9 11 11 11 12 13 12 13 14 15 14 14 14 14 11 11 11 11 12
6 8 7 8 4 3 6 8 7 6 6 7 7 6 7 7 6 5 4 4 4 5 6 6 8 10 12 12 13 13 13 13 14 14 14 14 13 13 13 12 11 13 12 13
7 9 9 7 7 7 6 8 10 9 9 9 8 7 6 6 5 4 4 4 5 6 7 8 10 11 13 13 14 13 13 12 13 13 13 11 11 11 11 12 13 14 17 22
Wind_Direction
165 222 238 244 239 270 272 268 276 285 318 285 277 286 297 144 145 120 101 86 73 66 61 59 63 72 83 90 105 126 153 171 179 184 195 208 223 228 232 237 241 241 241 240
203 241 258 254 200 219 238 258 270 274 205 276 292 285 242 156 142 124 110 96 88 84 74 66 68 71 74 80 87 102 126 153 174 183 192 212 232 241 246 244 246 245 245 245
231 236 136 168 184 207 230 246 265 280 283 220 283 224 169 152 144 133 119 107 96 86 83 77 73 72 73 72 74 84 101 130 162 178 185 190 219 241 240 244 247 248 248 247
240 214 183 215 225 224 249 239 244 254 274 256 281 246 176 172 169 162 145 127 110 102 95 87 82 76 72 72 76 84 93 107 132 169 198 215 233 251 265 273 268 268 259 255
215 190 195 219 230 209 219 106 184 235 256 268 222 246 180 178 188 179 162 143 127 116 107 99 90 86 81 79 80 84 90 92 107 152 202 238 256 275 289 291 284 282 272 262
243 192 217 218 107 171 138 133 127 184 227 244 204 230 203 187 198 182 170 158 146 134 123 113 107 103 94 88 84 85 88 85 88 107 163 256 285 295 299 300 300 296 287 275
224 217 203 174 150 154 187 218 232 216 213 225 135 240 249 160 189 188 176 167 157 149 142 133 127 118 106 95 87 85 83 77 70 67 49 348 313 306 303 308 307 304 298 292
214 209 189 194 212 194 197 230 253 274 271 221 188 240 198 113 152 185 182 167 161 160 153 144 135 127 115 102 91 83 75 68 56 45 31 7 341 315 310 308 303 299 296 296
213 195 112 163 196 194 176 207 281 282 287 272 239 252 246 150 173 177 176 172 171 167 161 152 144 135 122 105 86 71 64 57 43 28 11 357 342 323 313 307 301 296 294 297
212 187 146 137 138 53 284 154 170 215 245 253 250 243 222 179 176 171 174 177 171 166 162 156 147 133 116 97 85 69 53 42 27 10 360 333 327 322 313 306 304 302 301 299
205 200 157 181 207 192 164 182 204 204 264 265 267 244 119 188 173 173 174 172 169 166 162 157 145 129 115 100 83 61 42 24 10 355 338 326 325 320 312 305 304 304 301 299
191 211 194 180 92 307 222 208 194 217 217 236 272 274 103 180 172 174 167 162 163 160 154 146 138 134 123 97 65 35 16 2 352 340 327 323 320 316 311 309 308 305 301 299
162 191 185 173 178 183 209 203 212 228 231 221 240 248 116 157 166 172 170 164 159 155 149 144 141 135 111 68 23 359 348 341 335 326 318 316 314 313 311 309 308 305 301 298
178 202 228 240 176 167 190 195 196 201 223 233 237 255 210 194 188 178 172 167 161 155 151 145 138 124 78 8 343 334 333 330 324 316 312 311 311 310 307 305 303 301 299 296
199 223 230 255 149 182 209 204 198 213 232 247 256 258 256 230 212 197 179 165 161 156 153 149 144 111 356 338 329 327 321 319 315 309 308 307 307 306 303 301 300 300 298 295
201 216 197 219 198 221 243 236 222 228 240 248 260 265 270 226 195 188 177 169 168 164 164 161 167 270 320 326 322 315 312 313 308 303 302 304 304 303 302 301 301 299 297 295
181 179 195 233 169 230 248 237 226 223 224 234 247 258 188 181 186 183 174 170 170 169 169 177 206 291 309 313 309 307 308 307 302 298 299 302 302 301 301 302 300 299 298 297
177 182 205 201 182 237 252 118 225 229 239 231 241 224 179 174 156 160 167 168 167 166 175 190 240 281 296 302 302 302 302 299 296 296 298 300 301 301 302 302 301 301 300 298
208 177 173 194 237 260 257 206 190 208 245 221 218 201 161 137 142 159 162 164 164 165 176 206 259 278 288 296 301 301 296 296 294 294 298 303 303 302 302 302 302 303 301 299
141 210 198 195 226 246 243 133 155 185 254 199 191 176 161 163 191 179 163 161 158 162 179 223 261 276 285 297 303 297 296 298 298 302 303 303 302 301 300 301 302 301 300 298
166 190 213 221 237 259 195 138 160 213 274 151 174 171 170 184 173 123 146 158 166 178 206 249 275 282 290 300 299 293 295 298 303 303 300 299 299 299 300 300 299 300 299 298
178 183 200 207 225 244 150 159 200 237 106 157 167 169 170 158 129 138 153 163 178 206 239 270 282 289 296 297 293 292 296 302 304 302 299 298 299 300 298 298 299 300 300 299
208 201 194 202 219 45 165 196 198 139 161 166 165 163 160 156 163 165 174 186 208 237 260 273 283 291 295 297 295 293 299 304 303 301 299 299 300 299 298 298 299 300 299 297
210 199 202 226 237 213 204 205 190 180 171 157 155 155 161 166 169 177 190 211 235 254 268 278 284 289 296 301 299 294 298 301 300 299 299 300 300 299 299 296 294 294 295 296
186 175 204 234 234 209 216 207 185 162 148 143 142 152 162 162 173 189 211 232 251 267 276 279 282 287 292 298 299 299 301 302 299 298 298 298 297 297 298 295 292 292 288 287
184 187 195 225 200 197 199 183 174 165 164 160 153 152 160 173 183 202 230 248 262 273 280 282 284 287 292 298 299 301 302 301 298 296 298 298 298 297 296 297 296 285 283 290